Location: Central Falls
(41.8900°N, 71.3929°W)
Time: 02:52:35
(UTC+00:00)

Vanguard 2 Rocket - Pass Details

Date: 10 December 2023
Orbit: 555 x 3309 km, 32.9° (Epoch: 01 March)

Event Time Altitude Azimuth Distance (km) Brightness Sun altitude
Rises 16:39:17 0° 219° (SW) 5,057 11.5 25.2°
Reaches altitude 10° 16:42:24 10° 212° (SSW) 4,400 11.5 25.2°
Maximum altitude 16:54:18 41° 147° (SSE) 3,522 11.0 25.1°
Drops below altitude 10° 17:11:21 10° 87° (E) 6,226 11.1 24.7°
Sets 17:16:47 0° 81° (E) 7,298 11.3 24.6°
